Regional Weather Roundup
Issued by NWS

Home | Current Version | Previous Version | Text Only | Print | Product List | Glossary Off
Versions: 1 2 3 4 5 6 7 8 9 10 11 12 13 14 15 16 17 18 19 20 21 22 23 24 25 26 27 28 29 30 31 32 33 34 35 36 37 38 39 40 41 42 43 44 45 46 47 48 49 50

776
ASUS43 KDTX 270401
RWRMI
MICHIGAN HOURLY REGIONAL WEATHER ROUNDUP
NATIONAL WEATHER SERVICE DETROIT/PONTIAC MI
1200 AM EDT TUE SEP 27 2016

NOTE: "FAIR" INDICATES FEW OR NO CLOUDS BELOW 12,000 FEET WITH NO
SIGNIFICANT WEATHER AND/OR OBSTRUCTION TO VISIBILITY.

MIZ047>049-052>055-059>063-066>070-074>076-081>083-270500-
SOUTHEAST LOWER MICHIGAN

CITY           SKY/WX    TMP DP  RH WIND       PRES   REMARKS
ADRIAN         CLEAR     52  43  71 W5        29.94S
ALMA           CLEAR     51  45  77 SW9       29.84S
ANN ARBOR      CLEAR     46  43  89 SW3       29.90F
BAD AXE        CLEAR     51  42  72 SW8       29.83F
CARO           CLOUDY    48  45  90 S6        29.83F
DETROIT CITY   CLEAR     58  40  51 SW8       29.89F
DETROIT        CLEAR     53  43  68 S9        29.91F
FLINT          MOCLDY    52  45  77 S9        29.86F
GROSSE ILE     CLEAR     59  41  52 SW7       29.90F
HILLSDALE      PTCLDY    54  39  58 SW8       29.92S
HOWELL         PTCLDY    51  43  74 CALM      29.88F

CITY           SKY/WX    TMP DP  RH WIND       PRES   REMARKS
JACKSON        CLEAR     53  41  63 SW8       29.90F
LAMBERTVILLE   CLEAR     54  44  68 S6        29.93F
LANSING        MOCLDY    53  44  71 S5        29.87F
LAPEER         CLOUDY    54  45  71 SW8       29.87F
MASON          CLEAR     53  42  67 S3        29.88F
MONROE         CLEAR     52  44  74 SW5       29.91F
MT. CLEMENS    CLEAR     53  43  67 CALM      29.86F
PONTIAC        PTCLDY    54  43  66 NW6       29.90R
PORT HURON     PTCLDY    52  43  71 W3        29.89S
TRI CITIES     CLEAR     52  44  74 SW7       29.83F
MIDLAND        FAIR      50  42  75 SW3       29.81F
TROY           CLEAR     57  39  51 SW7       29.90F
SAGINAW HB     CLEAR     50  45  81 S8        29.82F
$$
MIZ043>046-050>051-056>058-064>065-071>073-077>080-270500-
SOUTHWEST LOWER MICHIGAN

CITY           SKY/WX    TMP DP  RH WIND       PRES   REMARKS
BATTLE CREEK   MOCLDY    53  43  68 SW9       29.89F
BENTON HARBOR  CLEAR     65  37  35 W20G28    29.90F
BIG RAPIDS     CLOUDY    52  46  82 CALM      29.80F
COLDWATER      CLEAR     53  39  60 SW7       29.92F
FREMONT        FAIR      57  32  38 W7        29.81F
HOLLAND        MOCLDY    64  39  39 W12       29.86F
GRAND RAPIDS   CLOUDY    55  42  61 SW6       29.85F
IONIA          FAIR      51  44  76 S5        29.84F
KALAMAZOO      MOCLDY    56  40  55 SW9       29.90F
LUDINGTON      CLOUDY    60  42  50 W10G18    29.78F
MARSHALL       PTCLDY    54  41  60 SW5       29.90F
MOUNT PLEASANT PTCLDY    53  42  68 SW5       29.81F
MUSKEGON       CLEAR     62  39  42 W16G25    29.84F
SOUTH HAVEN    PTCLDY    66  35  31 W15G23    29.88F
$$
MIZ016>042-270500-
NORTHERN LOWER MICHIGAN

CITY           SKY/WX    TMP DP  RH WIND       PRES   REMARKS
ALPENA         CLOUDY    53  44  71 SW9G17    29.72F
BEAVER ISLAND  LGT RAIN  54  48  82 W21G31    29.63F
BELLAIRE       RAIN      53  50  90 SW3       29.71F
CADILLAC       DRIZZLE   50  45  83 SW7       29.76F
CHARLEVOIX     CLOUDY    55  48  75 W28G35    29.69F
FRANKFORT      CLOUDY    60  42  51 W20G29    29.73F
GAYLORD        LGT RAIN  50  46  86 SW14      29.71F
GRAYLING       LGT RAIN  50  47  90 SW6       29.75F
HARBOR SPRINGS LGT RAIN  54  49  83 W12G29    29.66F
HOUGHTON LAKE  CLOUDY    53  44  71 SW13G24   29.77F
MANISTEE       CLOUDY    60  42  51 W17G25    29.75F
OSCODA         PTCLDY    50  42  75 SW8       29.76F
PELLSTON       LGT RAIN  53  48  83 W9G20     29.66F
ROGERS CITY    FLURRIES  52  47  83 SW8       29.69F
TRAVERSE CITY  CLOUDY    53  49  86 S5        29.71F
$$
MIZ007>008-015-270500-
EASTERN UPPER MICHIGAN

CITY           SKY/WX    TMP DP  RH WIND       PRES   REMARKS
KINROSS        CLOUDY    52  45  77 SW6       29.61F
MACKINAC ISLAN LGT RAIN  55  46  72 W24G32    29.62F
NEWBERRY       CLOUDY    50  47  87 SW15G21   29.58F
S. S. MARIE    CLOUDY    53  45  74 SW8       29.59F
MUNISING         N/A     51  47  86 SW12G17   29.56F
$$
MIZ004>006-011>014-085-270500-
CENTRAL UPPER MICHIGAN

CITY           SKY/WX    TMP DP  RH WIND       PRES   REMARKS
MANISTIQUE     CLOUDY    53  45  76 W10G16    29.61F
ESCANABA       MOCLDY    53  45  74 SW13      29.63F
MENOMINEE      PTCLDY    54  43  66 W7        29.70F
SAWYER-GWINN   DRIZZLE   49  45  86 W13       29.59S
$$
MIZ001>003-009>011-084-270500-
WESTERN UPPER MICHIGAN

CITY           SKY/WX    TMP DP  RH WIND       PRES   REMARKS
IRON MOUNTAIN  CLOUDY    51  44  77 W8        29.63F
HOUGHTON       LGT RAIN  51  47  86 W23G35    29.49F
COPPER HARBOR    N/A     53  50  89 NW9G28    29.45F
IRONWOOD       CLOUDY    49  47  93 W18       29.65F
$$

ABBREVIATIONS USED IN REMARKS
   TC - TEMPERATURE IN CELSIUS
  WCI - WIND CHILL INDEX
   HX - HEAT INDEX
  VSB - VISIBILITY





USA.gov is the U.S. government's official web portal to all federal, state and local government web resources and services.